Location: Albany
(35.0000°S, 118.0000°E)
Time: 22:05:40
(UTC-04:00)

Vanguard 3 - Visible Passes

Search period start: 28 July 2016 00:00
Search period end: 07 August 2016 00:00
Orbit: 509 x 3266 km, 33.4° (Epoch: 28 July)

Date Brightness Start Highest point End Pass type
(mag) Time Alt. Az. Time Alt. Az. Time Alt. Az.
28 Jul 10.5 17:46:19 10° NNW 17:54:42 21° NNE 18:00:35 10° ENE visible
29 Jul 11.0 16:33:32 10° N 16:40:12 15° NNE 16:45:31 10° ENE visible
30 Jul 10.3 17:28:57 10° NNW 17:39:44 28° NNE 17:46:48 10° E visible
31 Jul 10.8 16:15:06 10° N 16:25:05 20° NNE 16:32:25 10° ENE visible
31 Jul 9.5 18:27:10 10° NW 18:39:01 44° NNE 18:45:56 10° E visible
01 Aug 11.2 15:03:33 10° N 15:10:03 13° NE 15:15:38 10° ENE visible
01 Aug 10.1 17:11:49 10° NNW 17:24:38 35° NNE 17:32:42 10° E visible
02 Aug 10.6 15:57:17 10° NNW 16:09:49 26° NNE 16:18:39 10° E visible
02 Aug 9.4 18:10:37 10° NW 18:23:59 52° NNE 18:31:35 10° E visible
03 Aug 11.1 14:44:26 10° N 14:54:40 18° NE 15:02:58 10° ENE visible
03 Aug 10.0 16:54:48 10° NW 17:09:25 42° NNE 17:18:25 10° E visible
04 Aug 11.4 13:37:16 10° NNE 13:39:17 10° NE 13:41:16 10° NE visible
04 Aug 10.5 15:41:58 14° NNW 15:54:25 32° NNE 16:04:31 10° E visible
04 Aug 9.3 17:54:06 10° WNW 18:08:51 60° NNE 18:17:10 10° E visible
05 Aug 10.9 14:34:09 20° NNE 14:39:07 23° NE 14:49:19 10° E visible
05 Aug 9.8 16:38:53 12° NW 16:54:04 49° NNE 17:03:59 10° E visible
06 Aug 11.3 13:25:58 14° NE 13:25:58 14° NE 13:31:15 10° ENE visible
06 Aug 10.3 15:30:40 26° NNW 15:38:52 38° NNE 15:50:07 10° E visible
06 Aug 9.3 17:37:37 10° WNW 17:53:37 66° NNE 18:02:40 10° E visible
